Powrót do katalogu

COSMOS 1275 DEB

LostPO
NORAD 42216·DEBRIS·🇷🇺 Russia

Wystrzelony Jun 4, 1981 z Plesetsk Cosmodrome

Loading…

Następne Przeloty (najbliższe 24 godziny)

TLE

NieaktualneSource: Space-Track

Epoka: Sep 12, 2024, 19:19 UTC

1 42216U 81053UG  24256.80515275  .00025150  00000-0  12160-1 0  9998
2 42216  82.8817 280.4111 0018836 225.3866 134.5778 14.18271998145203

Śledź COSMOS 1275 DEB w czasie rzeczywistym z AllMySat

Download on the App Store